Retour au catalogue

TIANPING-2C

ActifScienceSSO
NORAD 52155·PAYLOAD·🇨🇳 China
Ce nom de satellite n'a pas encore été confirmé par des sources officielles.

Lancé Mar 30, 2022 depuis Jiuquan Satellite Launch Center

Loading…

Prochains Passages (prochaines 24 heures)

TLE

FraisSource: Space-Track

Époque: Sep 14, 2026, 13:50 UTC

1 52155U 22032C   26257.57662884  .00000994  00000-0  80237-4 0  9991
2 52155  97.5805 300.8004 0018861 225.4681 134.5004 15.01968775243691

Suivez TIANPING-2C en temps réel avec AllMySat

Download on the App Store